{"data":{"norad_id":57663,"intl_designator":"2023-124A","name":"STARLINK-30267","alt_names":[],"object_type":"PAYLOAD","status":"ACTIVE","operator":null,"country":"US","launch_date":"2023-08-22","launch_site_code":"AFWTR","launch_vehicle":null,"mission":null,"orbit_class":"UNKNOWN","rcs_meters":null,"size_class":null,"mass_kg":null,"dimensions":null,"purposes":["comms"],"wikipedia_slug":null,"has_3d_model":false,"image_url":null,"decayed_at":null,"tle_current":{"epoch":"2026-05-24T21:44:07.829088Z","epoch_age_seconds":93587,"freshness":"FRESH","line1":"1 57663U 23124A   26144.90564617 -.00000255  00000+0  34989-5 0  9994","line2":"2 57663  53.1604 213.0091 0001059  92.5366 267.5756 15.30189270155230","mean_motion":15.3018927,"eccentricity":0.0001059,"inclination_deg":53.1604,"raan_deg":213.0091,"arg_perigee_deg":92.5366,"mean_anomaly_deg":267.5756,"bstar":3.4989e-6,"rev_number":15523,"period_min":94.106005592367,"perigee_km":474.52133407546,"apogee_km":475.97288082942,"semimajor_km":6853.3841074524,"source":"CELESTRAK","updated_at":"2026-05-25T13:38:18.366719Z"}}}